Time,TemperatureF,DewpointF,PressureIn,WindDirection,WindDirectionDegrees,WindSpeedMPH,WindSpeedGustMPH,Humidity,HourlyPrecipIn,Conditions,Clouds,dailyrainin,SoftwareType,DateUTC
2017-02-19 00:04:00,43.6,37.5,29.52,WNW,282,0.0,6.0,79,0.00,,---,0.00,VWS V15.00,2017-02-19 05:04:00,
2017-02-19 00:09:00,43.3,37.2,29.52,WSW,251,3.0,8.0,79,0.00,,---,0.00,VWS V15.00,2017-02-19 05:09:00,
2017-02-19 00:14:00,43.2,37.5,29.52,West,269,3.0,8.0,80,0.00,,---,0.00,VWS V15.00,2017-02-19 05:14:00,
2017-02-19 00:19:00,43.0,37.3,29.52,West,279,0.0,8.0,80,0.00,,---,0.00,VWS V15.00,2017-02-19 05:19:00,
2017-02-19 00:24:00,42.9,37.5,29.52,SW,228,4.0,10.0,81,0.00,,---,0.00,VWS V15.00,2017-02-19 05:24:00,
2017-02-19 00:29:00,42.7,37.3,29.52,West,266,2.0,10.0,81,0.00,,---,0.00,VWS V15.00,2017-02-19 05:29:00,
2017-02-19 00:34:00,42.8,37.4,29.52,WSW,244,0.0,7.0,81,0.00,,---,0.00,VWS V15.00,2017-02-19 05:34:00,
2017-02-19 00:39:00,42.9,37.5,29.52,West,275,4.0,9.0,81,0.00,,---,0.00,VWS V15.00,2017-02-19 05:39:00,
2017-02-19 00:44:00,42.9,37.5,29.52,WSW,254,5.0,9.0,81,0.00,,---,0.00,VWS V15.00,2017-02-19 05:44:00,
2017-02-19 00:49:00,42.8,37.4,29.52,SW,225,0.0,9.0,81,0.00,,---,0.00,VWS V15.00,2017-02-19 05:49:00,
2017-02-19 00:54:00,42.7,37.3,29.52,SW,227,0.0,10.0,81,0.00,,---,0.00,VWS V15.00,2017-02-19 05:54:00,
2017-02-19 00:59:00,42.6,37.2,29.52,West,281,0.0,10.0,81,0.00,,---,0.00,VWS V15.00,2017-02-19 05:59:00,
2017-02-19 01:04:00,42.5,37.1,29.52,SSW,196,1.0,8.0,81,0.00,,---,0.00,VWS V15.00,2017-02-19 06:04:00,
2017-02-19 01:09:00,42.5,37.1,29.52,West,268,2.0,8.0,81,0.00,,---,0.00,VWS V15.00,2017-02-19 06:09:00,
2017-02-19 01:14:00,42.5,37.1,29.52,SW,230,4.0,9.0,81,0.00,,---,0.00,VWS V15.00,2017-02-19 06:14:00,
2017-02-19 01:19:00,42.6,37.2,29.52,SW,226,6.0,9.0,81,0.00,,---,0.00,VWS V15.00,2017-02-19 06:19:00,
2017-02-19 01:24:00,42.8,37.4,29.52,WNW,284,3.0,9.0,81,0.00,,---,0.00,VWS V15.00,2017-02-19 06:24:00,
2017-02-19 01:29:00,42.9,37.2,29.52,West,277,0.0,9.0,80,0.00,,---,0.00,VWS V15.00,2017-02-19 06:29:00,
2017-02-19 01:34:00,43.1,37.4,29.51,WSW,237,3.0,11.0,80,0.00,,---,0.00,VWS V15.00,2017-02-19 06:34:00,
2017-02-19 01:39:00,43.3,37.2,29.52,WSW,245,5.0,11.0,79,0.00,,---,0.00,VWS V15.00,2017-02-19 06:39:00,
2017-02-19 01:44:00,43.3,37.2,29.52,WSW,254,3.0,11.0,79,0.00,,---,0.00,VWS V15.00,2017-02-19 06:44:00,
2017-02-19 01:49:00,43.4,37.3,29.51,SSW,208,4.0,11.0,79,0.00,,---,0.00,VWS V15.00,2017-02-19 06:49:00,
2017-02-19 01:54:00,43.4,37.3,29.51,West,275,2.0,11.0,79,0.00,,---,0.00,VWS V15.00,2017-02-19 06:54:00,
2017-02-19 01:58:00,43.4,37.0,29.51,South,178,0.0,11.0,78,0.00,,---,0.00,VWS V15.00,2017-02-19 06:58:00,
2017-02-19 02:03:00,43.4,37.0,29.51,WSW,253,2.0,9.0,78,0.00,,---,0.00,VWS V15.00,2017-02-19 07:03:00,
2017-02-19 02:08:00,43.6,37.2,29.52,SW,216,0.0,9.0,78,0.00,,---,0.00,VWS V15.00,2017-02-19 07:08:00,
2017-02-19 02:13:00,43.6,36.9,29.52,SW,215,3.0,9.0,77,0.00,,---,0.00,VWS V15.00,2017-02-19 07:13:00,
2017-02-19 02:18:00,43.7,37.0,29.52,NW,308,1.0,9.0,77,0.00,,---,0.00,VWS V15.00,2017-02-19 07:18:00,
2017-02-19 02:23:00,43.7,36.6,29.52,West,280,0.0,9.0,76,0.00,,---,0.00,VWS V15.00,2017-02-19 07:23:00,
2017-02-19 02:28:00,43.8,36.7,29.52,SW,228,2.0,10.0,76,0.00,,---,0.00,VWS V15.00,2017-02-19 07:28:00,
2017-02-19 02:33:00,43.8,36.7,29.52,WSW,247,0.0,8.0,76,0.00,,---,0.00,VWS V15.00,2017-02-19 07:33:00,
2017-02-19 02:38:00,43.7,36.6,29.53,WSW,250,7.0,8.0,76,0.00,,---,0.00,VWS V15.00,2017-02-19 07:38:00,
2017-02-19 02:43:00,43.5,36.5,29.53,SW,217,3.0,8.0,76,0.00,,---,0.00,VWS V15.00,2017-02-19 07:43:00,
2017-02-19 02:48:00,43.4,36.3,29.53,WSW,239,4.0,8.0,76,0.00,,---,0.00,VWS V15.00,2017-02-19 07:48:00,
2017-02-19 02:53:00,43.5,36.5,29.53,West,269,0.0,8.0,76,0.00,,---,0.00,VWS V15.00,2017-02-19 07:53:00,
2017-02-19 02:58:00,43.3,36.6,29.53,WNW,286,1.0,8.0,77,0.00,,---,0.00,VWS V15.00,2017-02-19 07:58:00,
2017-02-19 03:03:00,43.3,36.6,29.53,West,279,3.0,8.0,77,0.00,,---,0.00,VWS V15.00,2017-02-19 08:03:00,
2017-02-19 03:08:00,43.3,36.6,29.53,WNW,287,7.0,12.0,77,0.00,,---,0.00,VWS V15.00,2017-02-19 08:08:00,
2017-02-19 03:13:00,43.2,36.5,29.54,SSW,205,2.0,12.0,77,0.00,,---,0.00,VWS V15.00,2017-02-19 08:13:00,
2017-02-19 03:18:00,42.7,36.0,29.54,WNW,289,2.0,12.0,77,0.00,,---,0.00,VWS V15.00,2017-02-19 08:18:00,
2017-02-19 03:23:00,42.4,36.0,29.54,WSW,237,0.0,12.0,78,0.00,,---,0.00,VWS V15.00,2017-02-19 08:23:00,
2017-02-19 03:28:00,42.3,35.9,29.54,WSW,239,0.0,12.0,78,0.00,,---,0.00,VWS V15.00,2017-02-19 08:28:00,
2017-02-19 03:33:00,42.1,36.1,29.54,NW,309,3.0,3.0,79,0.00,,---,0.00,VWS V15.00,2017-02-19 08:33:00,
2017-02-19 03:38:00,41.9,35.9,29.55,WNW,284,2.0,6.0,79,0.00,,---,0.00,VWS V15.00,2017-02-19 08:38:00,
2017-02-19 03:43:00,41.8,35.8,29.55,NW,304,1.0,7.0,79,0.00,,---,0.00,VWS V15.00,2017-02-19 08:43:00,
2017-02-19 03:48:00,41.8,36.1,29.55,WNW,292,2.0,9.0,80,0.00,,---,0.00,VWS V15.00,2017-02-19 08:48:00,
2017-02-19 03:53:00,41.6,35.9,29.56,WSW,257,1.0,9.0,80,0.00,,---,0.00,VWS V15.00,2017-02-19 08:53:00,
2017-02-19 03:58:00,41.5,35.8,29.56,SW,229,3.0,9.0,80,0.00,,---,0.00,VWS V15.00,2017-02-19 08:58:00,
2017-02-19 04:03:00,41.4,35.7,29.56,West,271,1.0,6.0,80,0.00,,---,0.00,VWS V15.00,2017-02-19 09:03:00,
2017-02-19 04:08:00,41.3,35.6,29.57,West,275,6.0,6.0,80,0.00,,---,0.00,VWS V15.00,2017-02-19 09:08:00,
2017-02-19 04:13:00,41.3,35.6,29.57,SW,225,4.0,8.0,80,0.00,,---,0.00,VWS V15.00,2017-02-19 09:13:00,
2017-02-19 04:18:00,41.1,35.4,29.57,WNW,295,1.0,8.0,80,0.00,,---,0.00,VWS V15.00,2017-02-19 09:18:00,
2017-02-19 04:23:00,40.9,35.2,29.57,WSW,240,1.0,8.0,80,0.00,,---,0.00,VWS V15.00,2017-02-19 09:23:00,
2017-02-19 04:28:00,40.9,35.5,29.57,West,274,4.0,8.0,81,0.00,,---,0.00,VWS V15.00,2017-02-19 09:28:00,
2017-02-19 04:33:00,40.9,35.5,29.57,West,273,1.0,5.0,81,0.00,,---,0.00,VWS V15.00,2017-02-19 09:33:00,
2017-02-19 04:38:00,40.9,35.5,29.57,WNW,286,2.0,5.0,81,0.00,,---,0.00,VWS V15.00,2017-02-19 09:38:00,
2017-02-19 04:43:00,40.9,35.5,29.57,West,267,0.0,5.0,81,0.00,,---,0.00,VWS V15.00,2017-02-19 09:43:00,
2017-02-19 04:48:00,40.8,35.4,29.58,West,279,0.0,7.0,81,0.00,,---,0.00,VWS V15.00,2017-02-19 09:48:00,
2017-02-19 04:53:00,40.9,35.5,29.58,WNW,284,4.0,7.0,81,0.00,,---,0.00,VWS V15.00,2017-02-19 09:53:00,
2017-02-19 04:58:00,41.0,35.6,29.58,NW,322,0.0,7.0,81,0.00,,---,0.00,VWS V15.00,2017-02-19 09:58:00,
2017-02-19 05:03:00,41.2,35.8,29.58,WSW,256,1.0,5.0,81,0.00,,---,0.00,VWS V15.00,2017-02-19 10:03:00,
2017-02-19 05:08:00,41.4,35.7,29.58,West,274,2.0,6.0,80,0.00,,---,0.00,VWS V15.00,2017-02-19 10:08:00,
2017-02-19 05:13:00,41.6,35.9,29.58,West,279,0.0,6.0,80,0.00,,---,0.00,VWS V15.00,2017-02-19 10:13:00,
2017-02-19 05:18:00,41.8,36.1,29.59,NW,306,5.0,6.0,80,0.00,,---,0.00,VWS V15.00,2017-02-19 10:18:00,
2017-02-19 05:23:00,42.0,36.0,29.59,West,278,3.0,8.0,79,0.00,,---,0.00,VWS V15.00,2017-02-19 10:23:00,
2017-02-19 05:28:00,42.2,36.2,29.59,West,261,4.0,8.0,79,0.00,,---,0.00,VWS V15.00,2017-02-19 10:28:00,
2017-02-19 05:33:00,42.3,35.9,29.59,WSW,258,0.0,8.0,78,0.00,,---,0.00,VWS V15.00,2017-02-19 10:33:00,
2017-02-19 05:38:00,42.1,35.8,29.60,WNW,292,0.0,8.0,78,0.00,,---,0.00,VWS V15.00,2017-02-19 10:38:00,
2017-02-19 05:43:00,42.0,36.0,29.60,West,278,1.0,8.0,79,0.00,,---,0.00,VWS V15.00,2017-02-19 10:43:00,
2017-02-19 05:48:00,42.2,35.8,29.60,WSW,242,1.0,10.0,78,0.00,,---,0.00,VWS V15.00,2017-02-19 10:48:00,
2017-02-19 05:53:00,42.4,36.0,29.60,West,272,6.0,10.0,78,0.00,,---,0.00,VWS V15.00,2017-02-19 10:53:00,
2017-02-19 05:58:00,42.5,36.1,29.61,NW,308,4.0,10.0,78,0.00,,---,0.00,VWS V15.00,2017-02-19 10:58:00,
2017-02-19 06:03:00,42.5,35.8,29.61,WNW,301,1.0,8.0,77,0.00,,---,0.00,VWS V15.00,2017-02-19 11:03:00,
2017-02-19 06:08:00,42.5,35.8,29.61,WSW,246,0.0,8.0,77,0.00,,---,0.00,VWS V15.00,2017-02-19 11:08:00,
2017-02-19 06:13:00,42.4,36.0,29.62,WNW,296,2.0,10.0,78,0.00,,---,0.00,VWS V15.00,2017-02-19 11:13:00,
2017-02-19 06:18:00,42.3,35.6,29.62,West,275,0.0,10.0,77,0.00,,---,0.00,VWS V15.00,2017-02-19 11:18:00,
2017-02-19 06:23:00,42.1,35.8,29.62,WNW,302,3.0,10.0,78,0.00,,---,0.00,VWS V15.00,2017-02-19 11:23:00,
2017-02-19 06:28:00,41.9,35.5,29.62,West,273,0.0,10.0,78,0.00,,---,0.00,VWS V15.00,2017-02-19 11:28:00,
2017-02-19 06:33:00,41.9,35.5,29.62,WNW,283,0.0,4.0,78,0.00,,---,0.00,VWS V15.00,2017-02-19 11:33:00,
2017-02-19 06:38:00,42.0,36.0,29.62,WNW,292,3.0,10.0,79,0.00,,---,0.00,VWS V15.00,2017-02-19 11:38:00,
2017-02-19 06:43:00,42.2,35.8,29.62,NW,325,0.0,10.0,78,0.00,,---,0.00,VWS V15.00,2017-02-19 11:43:00,
2017-02-19 06:48:00,42.0,35.7,29.63,WNW,295,0.0,10.0,78,0.00,,---,0.00,VWS V15.00,2017-02-19 11:48:00,
2017-02-19 06:53:00,42.0,35.7,29.63,WNW,292,1.0,10.0,78,0.00,,---,0.00,VWS V15.00,2017-02-19 11:53:00,
2017-02-19 06:58:00,41.8,35.5,29.63,West,271,0.0,10.0,78,0.00,,---,0.00,VWS V15.00,2017-02-19 11:58:00,
2017-02-19 07:03:00,41.4,35.4,29.63,WSW,249,0.0,0.0,79,0.00,,---,0.00,VWS V15.00,2017-02-19 12:03:00,
2017-02-19 07:08:00,40.9,35.2,29.63,NW,310,0.0,2.0,80,0.00,,---,0.00,VWS V15.00,2017-02-19 12:08:00,
2017-02-19 07:13:00,40.9,35.5,29.63,WSW,258,0.0,3.0,81,0.00,,---,0.00,VWS V15.00,2017-02-19 12:13:00,
2017-02-19 07:18:00,41.0,35.3,29.64,West,267,0.0,3.0,80,0.00,,---,0.00,VWS V15.00,2017-02-19 12:18:00,
2017-02-19 07:23:00,41.1,35.4,29.64,WSW,253,0.0,4.0,80,0.00,,---,0.00,VWS V15.00,2017-02-19 12:23:00,
2017-02-19 07:28:00,40.9,35.5,29.64,WSW,250,3.0,4.0,81,0.00,,---,0.00,VWS V15.00,2017-02-19 12:28:00,
2017-02-19 07:33:00,40.6,35.2,29.64,SSW,211,0.0,2.0,81,0.00,,---,0.00,VWS V15.00,2017-02-19 12:33:00,
2017-02-19 07:38:00,40.6,35.2,29.64,West,272,0.0,3.0,81,0.00,,---,0.00,VWS V15.00,2017-02-19 12:38:00,
2017-02-19 07:43:00,40.6,35.2,29.64,WSW,247,0.0,3.0,81,0.00,,---,0.00,VWS V15.00,2017-02-19 12:43:00,
2017-02-19 07:48:00,40.7,35.3,29.64,West,276,0.0,3.0,81,0.00,,---,0.00,VWS V15.00,2017-02-19 12:48:00,
2017-02-19 07:53:00,40.8,35.4,29.64,West,261,0.0,3.0,81,0.00,,---,0.00,VWS V15.00,2017-02-19 12:53:00,
2017-02-19 07:58:00,41.1,35.7,29.64,West,259,0.0,3.0,81,0.00,,---,0.00,VWS V15.00,2017-02-19 12:58:00,
2017-02-19 08:03:00,41.5,36.1,29.64,WSW,238,0.0,0.0,81,0.00,,---,0.00,VWS V15.00,2017-02-19 13:03:00,
2017-02-19 08:08:00,41.9,36.2,29.64,SE,131,0.0,2.0,80,0.00,,---,0.00,VWS V15.00,2017-02-19 13:08:00,
2017-02-19 08:13:00,42.3,36.3,29.65,SW,236,0.0,2.0,79,0.00,,---,0.00,VWS V15.00,2017-02-19 13:13:00,
2017-02-19 08:18:00,42.9,36.8,29.65,SW,228,1.0,4.0,79,0.00,,---,0.00,VWS V15.00,2017-02-19 13:18:00,
2017-02-19 08:23:00,43.5,36.8,29.64,WNW,292,0.0,4.0,77,0.00,,---,0.00,VWS V15.00,2017-02-19 13:23:00,
2017-02-19 08:28:00,44.4,37.3,29.64,WNW,292,2.0,4.0,76,0.00,,---,0.00,VWS V15.00,2017-02-19 13:28:00,
2017-02-19 08:33:00,44.9,37.5,29.65,West,259,0.0,2.0,75,0.00,,---,0.00,VWS V15.00,2017-02-19 13:33:00,
2017-02-19 08:38:00,44.8,37.4,29.65,WNW,300,0.0,7.0,75,0.00,,---,0.00,VWS V15.00,2017-02-19 13:38:00,
2017-02-19 08:43:00,44.7,36.9,29.65,WNW,292,1.0,7.0,74,0.00,,---,0.00,VWS V15.00,2017-02-19 13:43:00,
2017-02-19 08:48:00,44.3,36.9,29.65,WNW,285,2.0,7.0,75,0.00,,---,0.00,VWS V15.00,2017-02-19 13:48:00,
2017-02-19 08:53:00,44.5,37.1,29.65,West,276,2.0,7.0,75,0.00,,---,0.00,VWS V15.00,2017-02-19 13:53:00,
2017-02-19 08:58:00,45.0,37.6,29.65,West,273,3.0,7.0,75,0.00,,---,0.00,VWS V15.00,2017-02-19 13:58:00,
2017-02-19 09:03:00,45.8,38.0,29.65,NW,308,0.0,6.0,74,0.00,,---,0.00,VWS V15.00,2017-02-19 14:03:00,
2017-02-19 09:08:00,46.1,37.9,29.65,West,262,0.0,6.0,73,0.00,,---,0.00,VWS V15.00,2017-02-19 14:08:00,
2017-02-19 09:13:00,46.3,37.4,29.65,NNW,327,4.0,7.0,71,0.00,,---,0.00,VWS V15.00,2017-02-19 14:13:00,
2017-02-19 09:18:00,46.0,37.5,29.66,West,279,3.0,7.0,72,0.00,,---,0.00,VWS V15.00,2017-02-19 14:18:00,
2017-02-19 09:23:00,46.0,37.5,29.66,WNW,282,2.0,7.0,72,0.00,,---,0.00,VWS V15.00,2017-02-19 14:23:00,
2017-02-19 09:28:00,46.0,37.5,29.66,WNW,291,3.0,7.0,72,0.00,,---,0.00,VWS V15.00,2017-02-19 14:28:00,
2017-02-19 09:33:00,46.5,38.0,29.66,West,269,1.0,2.0,72,0.00,,---,0.00,VWS V15.00,2017-02-19 14:33:00,
2017-02-19 09:38:00,46.3,37.8,29.66,WNW,294,0.0,4.0,72,0.00,,---,0.00,VWS V15.00,2017-02-19 14:38:00,
2017-02-19 09:48:00,45.9,38.1,29.66,WNW,300,1.0,4.0,74,0.00,,---,0.00,VWS V15.00,2017-02-19 14:48:00,
2017-02-19 09:53:00,46.8,38.3,29.67,West,269,2.0,5.0,72,0.00,,---,0.00,VWS V15.00,2017-02-19 14:53:00,
2017-02-19 09:58:00,47.3,38.4,29.67,WSW,243,4.0,5.0,71,0.00,,---,0.00,VWS V15.00,2017-02-19 14:58:00,
2017-02-19 10:03:00,47.4,38.1,29.67,WNW,303,3.0,4.0,70,0.00,,---,0.00,VWS V15.00,2017-02-19 15:03:00,
2017-02-19 10:08:00,47.4,38.1,29.67,WSW,250,2.0,6.0,70,0.00,,---,0.00,VWS V15.00,2017-02-19 15:08:00,
2017-02-19 10:13:00,47.6,38.3,29.67,West,265,3.0,7.0,70,0.00,,---,0.00,VWS V15.00,2017-02-19 15:13:00,
2017-02-19 10:18:00,48.3,38.6,29.67,WNW,282,1.0,7.0,69,0.00,,---,0.00,VWS V15.00,2017-02-19 15:18:00,
2017-02-19 10:23:00,48.6,38.9,29.66,West,272,1.0,7.0,69,0.00,,---,0.00,VWS V15.00,2017-02-19 15:23:00,
2017-02-19 10:28:00,49.1,39.0,29.67,WNW,297,2.0,7.0,68,0.00,,---,0.00,VWS V15.00,2017-02-19 15:28:00,
2017-02-19 10:32:00,49.4,39.3,29.66,SW,224,0.0,4.0,68,0.00,,---,0.00,VWS V15.00,2017-02-19 15:32:00,
2017-02-19 10:37:00,48.5,38.4,29.66,NW,306,4.0,4.0,68,0.00,,---,0.00,VWS V15.00,2017-02-19 15:37:00,
2017-02-19 10:42:00,47.7,38.0,29.66,West,259,2.0,5.0,69,0.00,,---,0.00,VWS V15.00,2017-02-19 15:42:00,
2017-02-19 10:47:00,47.5,38.2,29.66,West,279,1.0,5.0,70,0.00,,---,0.00,VWS V15.00,2017-02-19 15:47:00,
2017-02-19 10:52:00,47.5,38.2,29.66,West,263,3.0,5.0,70,0.00,,---,0.00,VWS V15.00,2017-02-19 15:52:00,
2017-02-19 10:57:00,47.5,38.2,29.67,NW,304,1.0,5.0,70,0.00,,---,0.00,VWS V15.00,2017-02-19 15:57:00,
2017-02-19 11:07:00,48.8,39.1,29.67,West,265,3.0,6.0,69,0.00,,---,0.00,VWS V15.00,2017-02-19 16:07:00,
2017-02-19 11:12:00,49.5,38.6,29.67,West,268,2.0,8.0,66,0.00,,---,0.00,VWS V15.00,2017-02-19 16:12:00,
2017-02-19 11:17:00,49.8,38.9,29.67,SW,228,2.0,8.0,66,0.00,,---,0.00,VWS V15.00,2017-02-19 16:17:00,
2017-02-19 11:22:00,49.9,39.4,29.66,West,269,1.0,8.0,67,0.00,,---,0.00,VWS V15.00,2017-02-19 16:22:00,
2017-02-19 11:27:00,49.8,38.9,29.66,SW,225,1.0,8.0,66,0.00,,---,0.00,VWS V15.00,2017-02-19 16:27:00,
2017-02-19 11:32:00,50.0,39.1,29.66,West,259,0.0,4.0,66,0.00,,---,0.00,VWS V15.00,2017-02-19 16:32:00,
2017-02-19 11:37:00,50.0,38.7,29.66,West,261,1.0,4.0,65,0.00,,---,0.00,VWS V15.00,2017-02-19 16:37:00,
2017-02-19 11:42:00,50.1,38.8,29.65,WSW,246,3.0,8.0,65,0.00,,---,0.00,VWS V15.00,2017-02-19 16:42:00,
2017-02-19 11:47:00,49.9,38.6,29.65,West,261,1.0,8.0,65,0.00,,---,0.00,VWS V15.00,2017-02-19 16:47:00,
2017-02-19 11:52:00,50.5,38.8,29.65,West,273,2.0,8.0,64,0.00,,---,0.00,VWS V15.00,2017-02-19 16:52:00,
2017-02-19 11:57:00,51.1,39.0,29.65,West,277,7.0,8.0,63,0.00,,---,0.00,VWS V15.00,2017-02-19 16:57:00,
2017-02-19 12:07:00,51.4,38.8,29.65,West,279,3.0,7.0,62,0.00,,---,0.00,VWS V15.00,2017-02-19 17:07:00,
2017-02-19 12:12:00,51.6,38.6,29.65,WSW,240,3.0,7.0,61,0.00,,---,0.00,VWS V15.00,2017-02-19 17:12:00,
2017-02-19 12:17:00,52.3,38.4,29.65,WSW,252,3.0,7.0,59,0.00,,---,0.00,VWS V15.00,2017-02-19 17:17:00,
2017-02-19 12:22:00,53.0,39.1,29.65,West,271,7.0,9.0,59,0.00,,---,0.00,VWS V15.00,2017-02-19 17:22:00,
2017-02-19 12:27:00,53.5,39.1,29.65,WNW,292,5.0,9.0,58,0.00,,---,0.00,VWS V15.00,2017-02-19 17:27:00,
2017-02-19 12:32:00,53.9,38.6,29.65,West,281,3.0,8.0,56,0.00,,---,0.00,VWS V15.00,2017-02-19 17:32:00,
2017-02-19 12:37:00,53.8,38.5,29.65,SW,223,1.0,8.0,56,0.00,,---,0.00,VWS V15.00,2017-02-19 17:37:00,
2017-02-19 12:42:00,53.8,38.5,29.65,WSW,245,3.0,8.0,56,0.00,,---,0.00,VWS V15.00,2017-02-19 17:42:00,
2017-02-19 12:47:00,53.7,37.9,29.65,South,181,2.0,9.0,55,0.00,,---,0.00,VWS V15.00,2017-02-19 17:47:00,
2017-02-19 12:52:00,54.5,38.7,29.65,West,262,1.0,9.0,55,0.00,,---,0.00,VWS V15.00,2017-02-19 17:52:00,
2017-02-19 12:57:00,55.2,38.9,29.65,SW,225,0.0,9.0,54,0.00,,---,0.00,VWS V15.00,2017-02-19 17:57:00,
2017-02-19 13:02:00,55.2,38.4,29.64,WSW,244,2.0,6.0,53,0.00,,---,0.00,VWS V15.00,2017-02-19 18:02:00,
2017-02-19 13:07:00,54.9,38.6,29.64,West,262,0.0,7.0,54,0.00,,---,0.00,VWS V15.00,2017-02-19 18:07:00,
2017-02-19 13:12:00,55.6,39.7,29.64,WSW,247,1.0,7.0,55,0.00,,---,0.00,VWS V15.00,2017-02-19 18:12:00,
2017-02-19 13:17:00,56.3,38.9,29.63,WSW,257,1.0,7.0,52,0.00,,---,0.00,VWS V15.00,2017-02-19 18:17:00,
2017-02-19 13:22:00,56.6,39.2,29.63,West,259,2.0,7.0,52,0.00,,---,0.00,VWS V15.00,2017-02-19 18:22:00,
2017-02-19 13:27:00,56.4,39.0,29.63,WSW,255,3.0,10.0,52,0.00,,---,0.00,VWS V15.00,2017-02-19 18:27:00,
2017-02-19 13:32:00,56.4,39.5,29.63,SSW,209,0.0,8.0,53,0.00,,---,0.00,VWS V15.00,2017-02-19 18:32:00,
2017-02-19 13:37:00,56.3,39.4,29.63,SW,225,4.0,8.0,53,0.00,,---,0.00,VWS V15.00,2017-02-19 18:37:00,
2017-02-19 13:42:00,56.6,39.7,29.63,WSW,253,4.0,8.0,53,0.00,,---,0.00,VWS V15.00,2017-02-19 18:42:00,
2017-02-19 13:47:00,56.4,39.5,29.63,SW,227,1.0,8.0,53,0.00,,---,0.00,VWS V15.00,2017-02-19 18:47:00,
2017-02-19 13:52:00,56.2,39.3,29.63,North,350,2.0,8.0,53,0.00,,---,0.00,VWS V15.00,2017-02-19 18:52:00,
2017-02-19 13:57:00,56.0,39.6,29.63,SW,225,3.0,8.0,54,0.00,,---,0.00,VWS V15.00,2017-02-19 18:57:00,
2017-02-19 14:02:00,55.9,39.5,29.63,WSW,247,1.0,5.0,54,0.00,,---,0.00,VWS V15.00,2017-02-19 19:02:00,
2017-02-19 14:07:00,55.2,39.3,29.63,WSW,251,1.0,5.0,55,0.00,,---,0.00,VWS V15.00,2017-02-19 19:07:00,
2017-02-19 14:12:00,55.2,39.3,29.63,WSW,238,6.0,8.0,55,0.00,,---,0.00,VWS V15.00,2017-02-19 19:12:00,
2017-02-19 14:17:00,54.9,39.0,29.63,NW,318,3.0,8.0,55,0.00,,---,0.00,VWS V15.00,2017-02-19 19:17:00,
2017-02-19 14:22:00,55.1,39.2,29.63,West,265,2.0,9.0,55,0.00,,---,0.00,VWS V15.00,2017-02-19 19:22:00,
2017-02-19 14:27:00,55.4,39.5,29.63,WSW,249,3.0,9.0,55,0.00,,---,0.00,VWS V15.00,2017-02-19 19:27:00,
2017-02-19 14:32:00,55.5,39.1,29.64,NW,309,4.0,9.0,54,0.00,,---,0.00,VWS V15.00,2017-02-19 19:32:00,
2017-02-19 14:37:00,55.3,39.4,29.64,SW,217,2.0,12.0,55,0.00,,---,0.00,VWS V15.00,2017-02-19 19:37:00,
2017-02-19 14:42:00,54.9,39.5,29.64,West,261,3.0,12.0,56,0.00,,---,0.00,VWS V15.00,2017-02-19 19:42:00,
2017-02-19 14:47:00,54.5,39.1,29.64,SW,234,4.0,12.0,56,0.00,,---,0.00,VWS V15.00,2017-02-19 19:47:00,
2017-02-19 14:52:00,53.6,38.8,29.64,WNW,290,4.0,12.0,57,0.00,,---,0.00,VWS V15.00,2017-02-19 19:52:00,
2017-02-19 14:57:00,53.3,38.9,29.65,West,271,2.0,12.0,58,0.00,,---,0.00,VWS V15.00,2017-02-19 19:57:00,
2017-02-19 15:02:00,52.5,38.6,29.65,NW,314,4.0,8.0,59,0.00,,---,0.00,VWS V15.00,2017-02-19 20:02:00,
2017-02-19 15:07:00,51.9,38.0,29.65,WNW,302,5.0,9.0,59,0.00,,---,0.00,VWS V15.00,2017-02-19 20:07:00,
2017-02-19 15:12:00,51.3,38.3,29.65,West,279,2.0,9.0,61,0.00,,---,0.00,VWS V15.00,2017-02-19 20:12:00,
2017-02-19 15:17:00,51.0,38.0,29.65,West,270,4.0,9.0,61,0.00,,---,0.00,VWS V15.00,2017-02-19 20:17:00,
2017-02-19 15:22:00,50.6,37.7,29.66,WSW,252,7.0,9.0,61,0.00,,---,0.00,VWS V15.00,2017-02-19 20:22:00,
2017-02-19 15:27:00,50.1,37.6,29.66,NW,307,9.0,9.0,62,0.00,,---,0.00,VWS V15.00,2017-02-19 20:27:00,
2017-02-19 15:32:00,50.3,37.8,29.66,WNW,284,4.0,8.0,62,0.00,,---,0.00,VWS V15.00,2017-02-19 20:32:00,
2017-02-19 15:37:00,49.5,37.4,29.66,West,281,3.0,8.0,63,0.00,,---,0.00,VWS V15.00,2017-02-19 20:37:00,
2017-02-19 15:42:00,48.9,37.7,29.66,NNE,19,4.0,10.0,65,0.00,,---,0.00,VWS V15.00,2017-02-19 20:42:00,
2017-02-19 15:47:00,49.3,37.7,29.66,WNW,293,5.0,10.0,64,0.00,,---,0.00,VWS V15.00,2017-02-19 20:47:00,
2017-02-19 15:52:00,49.3,38.0,29.67,West,275,4.0,10.0,65,0.00,,---,0.00,VWS V15.00,2017-02-19 20:52:00,
2017-02-19 15:57:00,49.3,38.0,29.67,WNW,284,0.0,10.0,65,0.00,,---,0.00,VWS V15.00,2017-02-19 20:57:00,
2017-02-19 16:07:00,48.9,37.7,29.68,WNW,298,3.0,7.0,65,0.00,,---,0.00,VWS V15.00,2017-02-19 21:07:00,
2017-02-19 16:12:00,49.1,37.5,29.68,West,275,3.0,8.0,64,0.00,,---,0.00,VWS V15.00,2017-02-19 21:12:00,
2017-02-19 16:17:00,49.6,37.5,29.68,West,281,3.0,8.0,63,0.00,,---,0.00,VWS V15.00,2017-02-19 21:17:00,
2017-02-19 16:21:00,49.9,37.4,29.68,WNW,286,2.0,8.0,62,0.00,,---,0.00,VWS V15.00,2017-02-19 21:21:00,
2017-02-19 16:26:00,50.0,37.5,29.69,WNW,285,2.0,8.0,62,0.00,,---,0.00,VWS V15.00,2017-02-19 21:26:00,
2017-02-19 16:31:00,49.9,37.8,29.69,West,276,2.0,3.0,63,0.00,,---,0.00,VWS V15.00,2017-02-19 21:31:00,
2017-02-19 16:36:00,49.6,37.5,29.69,WSW,249,1.0,8.0,63,0.00,,---,0.00,VWS V15.00,2017-02-19 21:36:00,
2017-02-19 16:41:00,49.4,37.8,29.69,WNW,299,1.0,8.0,64,0.00,,---,0.00,VWS V15.00,2017-02-19 21:41:00,
2017-02-19 16:46:00,49.2,37.6,29.70,West,267,0.0,8.0,64,0.00,,---,0.00,VWS V15.00,2017-02-19 21:46:00,
2017-02-19 16:51:00,48.6,37.8,29.70,SW,215,1.0,8.0,66,0.00,,---,0.00,VWS V15.00,2017-02-19 21:51:00,
2017-02-19 16:56:00,48.0,37.6,29.70,West,265,0.0,8.0,67,0.00,,---,0.00,VWS V15.00,2017-02-19 21:56:00,
2017-02-19 17:01:00,47.6,37.2,29.70,SW,236,0.0,0.0,67,0.00,,---,0.00,VWS V15.00,2017-02-19 22:01:00,
2017-02-19 17:06:00,47.6,37.6,29.70,West,271,0.0,2.0,68,0.00,,---,0.00,VWS V15.00,2017-02-19 22:06:00,
2017-02-19 17:11:00,47.6,37.6,29.71,SSW,192,1.0,2.0,68,0.00,,---,0.00,VWS V15.00,2017-02-19 22:11:00,
2017-02-19 17:16:00,47.6,37.6,29.71,West,273,0.0,2.0,68,0.00,,---,0.00,VWS V15.00,2017-02-19 22:16:00,
2017-02-19 17:21:00,47.4,37.4,29.71,West,263,0.0,2.0,68,0.00,,---,0.00,VWS V15.00,2017-02-19 22:21:00,
2017-02-19 17:26:00,47.1,37.5,29.72,SW,215,0.0,4.0,69,0.00,,---,0.00,VWS V15.00,2017-02-19 22:26:00,
2017-02-19 17:31:00,47.0,37.4,29.71,SW,215,1.0,2.0,69,0.00,,---,0.00,VWS V15.00,2017-02-19 22:31:00,
2017-02-19 17:36:00,46.9,37.3,29.72,SW,227,0.0,2.0,69,0.00,,---,0.00,VWS V15.00,2017-02-19 22:36:00,
2017-02-19 17:41:00,46.5,36.9,29.72,NW,313,1.0,2.0,69,0.00,,---,0.00,VWS V15.00,2017-02-19 22:41:00,
2017-02-19 17:46:00,46.4,37.2,29.72,WNW,297,0.0,3.0,70,0.00,,---,0.00,VWS V15.00,2017-02-19 22:46:00,
2017-02-19 17:51:00,46.3,37.1,29.72,SSW,204,0.0,3.0,70,0.00,,---,0.00,VWS V15.00,2017-02-19 22:51:00,
2017-02-19 17:56:00,46.4,37.2,29.73,WSW,238,0.0,3.0,70,0.00,,---,0.00,VWS V15.00,2017-02-19 22:56:00,
2017-02-19 18:01:00,46.5,37.3,29.73,WSW,237,0.0,3.0,70,0.00,,---,0.00,VWS V15.00,2017-02-19 23:01:00,
2017-02-19 18:06:00,46.4,36.8,29.73,SW,236,0.0,3.0,69,0.00,,---,0.00,VWS V15.00,2017-02-19 23:06:00,
2017-02-19 18:11:00,46.5,36.9,29.73,SW,222,0.0,3.0,69,0.00,,---,0.00,VWS V15.00,2017-02-19 23:11:00,
2017-02-19 18:12:00,46.6,37.0,29.73,SW,222,0.0,3.0,69,0.00,,---,0.00,VWS V15.00,2017-02-19 23:12:00,
2017-02-19 18:17:00,46.5,36.9,29.74,WSW,238,2.0,3.0,69,0.00,,---,0.00,VWS V15.00,2017-02-19 23:17:00,